Main page
METAR-TAF:

METAR-TAF

Airports :

K13-a, Netherlands

Oil platform

latitude: 53-13-04N, longitude: 3-13-13E, elevation: 31 m

Current weather observation

The report was made 39 minutes ago, at 12:55 UTC
Wind 33 kt from the West with gusts up to 38 kt
Temperature 11°C
Humidity 94%
Pressure 1006 hPa

METAR: EHJR 221255Z AUTO 27033G38KT //// ///////// 11/10 Q1006 W15/H32

Time: 15:34 (13:34 UTC)


TAF: missing

Weather observations and forecasts of more than 4000 airports (METAR and TAF reports).

The available stations are represented by yellow and red dots on the map.

Hover mouse over dot to see the name of the station.

Then click to see weather observations and forecasts.

To change the map : click on the green buttons with a black cross to zoom in, on the green button with a dash to zoom out, or on the green arrows for adjacent maps.


METAR-TAF: